DW2513 Weather Reports


time (UTC)temp
C
wind
direction
speed
KPH
gust
KPH
rain 1hr
cm
rain 24hr
cm
rain mn
cm
humidity
%
barometer
mb
20260504160305 16 113 1.6 14.5 0.00 0.03 0.03 31 1003.3
20260504130804 13 211 0.0 4.8 0.00 0.03 0.03 38 1004.7
20260504100304 5 127 0.0 0.0 0.00 0.03 0.03 76 1005.1
20260504081304 3 127 0.0 0.0 0.00 0.03 0.03 72 1005.3
20260504080805 3 127 0.0 0.0 0.00 0.03 0.03 72 1005.3
20260504070305 2 127 0.0 0.0 0.00 0.03 0.03 74 1005.2
20260504050304 2 127 0.0 0.0 0.00 0.00 0.00 68 1005.7
20260504045804 2 127 0.0 0.0 0.00 0.00 0.00 68 1005.7
20260504045304 2 127 0.0 0.0 0.00 0.00 0.00 68 1005.7
20260504044804 2 127 0.0 0.0 0.00 0.00 0.00 68 1005.7
20260504043305 2 127 0.0 0.0 0.00 0.00 0.00 67 1005.7
20260504041805 2 127 0.0 0.0 0.00 0.00 0.00 66 1005.7
20260504041304 2 127 0.0 0.0 0.00 0.00 0.00 65 1005.7
20260504040820 2 127 0.0 0.0 0.00 0.00 0.00 65 1005.7
20260504040305 2 127 0.0 0.0 0.00 0.00 0.00 65 1005.6
20260504035805 2 127 0.0 0.0 0.00 0.00 0.00 64 1005.6
20260504032804 2 127 0.0 0.0 0.00 0.00 0.00 62 1005.6
20260504031805 2 127 0.0 0.0 0.00 0.00 0.00 60 1005.6
20260504031304 2 127 0.0 0.0 0.00 0.00 0.00 60 1005.6
20260504030305 3 127 0.0 0.0 0.00 0.00 0.00 59 1005.6
20260504025304 3 127 0.0 0.0 0.00 0.00 0.00 58 1005.1
20260504022805 3 127 0.0 0.0 0.00 0.00 0.00 54 1005.1
20260504021304 3 127 0.0 0.0 0.00 0.00 0.00 53 1005.1
20260504020805 4 127 0.0 0.0 0.00 0.00 0.00 52 1005.1
20260504015305 5 127 0.0 0.0 0.00 0.00 0.00 51 1005.1
20260504014805 5 127 0.0 0.0 0.00 0.00 0.00 49 1005.1
20260504014304 5 127 0.0 0.0 0.00 0.00 0.00 49 1005.1
20260504013804 5 127 0.0 0.0 0.00 0.00 0.00 48 1005.1
20260504010304 6 127 0.0 0.0 0.00 0.00 0.00 48 1004.8
20260504003804 6 127 0.0 0.0 0.00 0.00 0.00 43 1004.6
20260504003304 7 127 0.0 0.0 0.00 0.00 0.00 43 1004.4
20260504002805 7 127 0.0 0.0 0.00 0.00 0.00 41 1004.4
20260504002305 7 127 0.0 0.0 0.00 0.00 0.00 44 1004.3
20260504001305 7 127 0.0 0.0 0.00 0.00 0.00 39 1003.8
20260504000305 7 127 0.0 0.0 0.00 0.00 0.00 38 1003.8
20260503235304 8 127 0.0 0.0 0.00 0.00 0.00 38 1003.8
20260503234804 8 127 0.0 0.0 0.00 0.00 0.00 37 1003.8
20260503234305 8 127 0.0 0.0 0.00 0.00 0.00 35 1003.8
20260503233305 8 127 0.0 0.0 0.00 0.00 0.00 35 1003.8
20260503232805 9 127 0.0 0.0 0.00 0.00 0.00 35 1003.8
20260503232305 9 127 0.0 3.2 0.00 0.00 0.00 33 1003.8
20260503231804 9 106 0.0 0.0 0.00 0.00 0.00 32 1003.8
20260503231304 9 88 1.6 4.8 0.00 0.00 0.00 30 1003.8
20260503230304 10 165 0.0 0.0 0.00 0.00 0.00 31 1003.7
20260503225804 10 165 0.0 0.0 0.00 0.00 0.00 30 1003.7
20260503224304 10 183 0.0 4.8 0.00 0.00 0.00 30 1003.7
20260503223804 10 182 3.2 9.7 0.00 0.00 0.00 30 1003.7
20260503223304 10 29 1.6 9.7 0.00 0.00 0.00 30 1003.7
20260503222805 10 168 1.6 8.0 0.00 0.00 0.00 31 1003.7
20260503220805 10 175 1.6 8.0 0.00 0.00 0.00 30 1003.6
20260503214305 10 65 1.6 8.0 0.00 0.00 0.00 30 1003.6
20260503213804 10 109 3.2 11.3 0.00 0.00 0.00 30 1003.6
20260503212804 10 146 3.2 11.3 0.00 0.00 0.00 30 1003.5
20260503212305 10 150 1.6 8.0 0.00 0.00 0.00 30 1003.6
20260503211804 10 231 1.6 16.1 0.00 0.00 0.00 29 1003.6
20260503211304 10 128 1.6 9.7 0.00 0.00 0.00 31 1003.6
20260503205804 10 154 4.8 14.5 0.00 0.00 0.00 30 1003.6
20260503205304 10 158 1.6 4.8 0.00 0.00 0.00 31 1003.6
20260503204304 9 236 1.6 11.3 0.00 0.00 0.00 31 1003.6
20260503203805 10 74 0.0 3.2 0.00 0.00 0.00 31 1003.6
20260503202804 10 118 4.8 11.3 0.00 0.00 0.00 30 1003.6
20260503202304 10 167 3.2 9.7 0.00 0.00 0.00 30 1003.6
20260503201805 10 150 1.6 9.7 0.00 0.00 0.00 31 1003.6
20260503200804 10 166 3.2 11.3 0.00 0.00 0.00 30 1003.6
20260503195805 10 91 1.6 9.7 0.00 0.00 0.00 30 1003.6
20260503194304 10 113 3.2 16.1 0.00 0.00 0.00 29 1003.6
20260503193804 10 110 6.4 19.3 0.00 0.00 0.00 29 1003.7
20260503192805 9 145 3.2 9.7 0.00 0.00 0.00 30 1003.7
20260503192305 9 48 3.2 9.7 0.00 0.00 0.00 30 1003.7
20260503191805 9 32 1.6 16.1 0.00 0.00 0.00 31 1003.7
20260503190805 9 224 4.8 16.1 0.00 0.00 0.00 30 1003.7
20260503184304 9 146 1.6 11.3 0.00 0.00 0.00 30 1003.5
20260503183304 9 135 6.4 19.3 0.00 0.00 0.00 32 1003.5
20260503182804 9 155 8.0 16.1 0.00 0.00 0.00 31 1003.2
20260503182305 10 207 6.4 11.3 0.00 0.00 0.00 30 1003.2
20260503181804 10 163 3.2 9.7 0.00 0.00 0.00 30 1003.2
20260503181304 10 91 3.2 19.3 0.00 0.00 0.00 28 1003.2
20260503180305 10 60 1.6 16.1 0.00 0.00 0.00 26 1003.2
20260503175805 10 97 3.2 16.1 0.00 0.00 0.00 27 1003.2
20260503175305 10 339 3.2 11.3 0.00 0.00 0.00 26 1003.2
20260503174804 10 69 1.6 19.3 0.00 0.00 0.00 29 1003.2
20260503173804 10 66 0.0 11.3 0.00 0.00 0.00 28 1003.2
20260503173304 10 96 1.6 8.0 0.00 0.00 0.00 28 1003.2
20260503172804 10 137 4.8 14.5 0.00 0.00 0.00 27 1003.2
20260503170304 10 169 3.2 11.3 0.00 0.00 0.00 28 1003.6